Regional Weather Roundup
Issued by NWS

Home | Current Version | Previous Version | Text Only | Print | Product List | Glossary Off
Versions: 1 2 3 4 5 6 7 8 9 10 11 12 13 14 15 16 17 18 19 20 21 22 23 24 25 26 27 28 29 30 31 32 33 34 35 36 37 38 39 40 41 42 43 44 45 46 47 48 49 50

000
ASUS43 KIND 011009
RWRIN

WEATHER ROUNDUP FOR INDIANA
NATIONAL WEATHER SERVICE INDIANAPOLIS IN
600 AM EDT FRI AUG 01 2014

NOTE: "FAIR" INDICATES FEW OR NO CLOUDS BELOW 12,000 FEET WITH NO
SIGNIFICANT WEATHER AND/OR OBSTRUCTIONS TO VISIBILITY.

* - STATION DOES NOT REPORT WEATHER SUCH AS PRECIPITATION OR FOG.

+ - STATION NOT QUALITY CONTROLLED BY THE NATIONAL WEATHER SERVICE.
    USE DATA WITH CAUTION...ESPECIALLY DEWPOINT AND RELATIVE
    HUMIDITY OBSERVATIONS.

INZ001>003-010>013-019-020-011100-
NORTHWEST INDIANA

CITY           SKY/WX    TMP DP  RH WIND       PRES   REMARKS
GARY /AIRPORT/ CLEAR     61  59  94 SW3       30.07S FOG
KNOX *+        CLEAR     57  55  93 S3        30.08R
LA PORTE +     PTCLDY    56  56 100 CALM      30.09R FOG
MICHIGAN CITY+ CLEAR     59  59 100 CALM      30.07S FOG
MONTICELLO +   CLEAR     58  58  97 CALM      30.08R
RENSSELAER +   CLEAR     55  55 100 CALM      30.09R FOG
VALPARAISO     CLEAR     60  58  92 SW3       30.08S

$$

LMZ046-743>745-011100-
SOUTHERN LAKE MICHIGAN

STATION/POSITION TIME  TEMP WIND        PRES
                       AIR  DIR/SP/G
                 (UTC) (F)  (DEG/KT/KT) (MB)
BURNS HARBOR     0900   68  200/  6/  7   N/A
MICHIGAN CITY    1000   67  170/  6/  8   N/A

$$

INZ004-005-014>016-021>024-011100-
NORTH CENTRAL INDIANA

CITY           SKY/WX    TMP DP  RH WIND       PRES   REMARKS
GOSHEN         CLEAR     62  59  90 S3        30.08R
LOGANSPORT +   CLEAR     54  52  94 CALM      30.10R FOG
PERU/GRISSOM   CLEAR     58  58 100 S2        30.09R
ROCHESTER +    CLEAR     59  57  94 CALM      30.09S
SOUTH BEND     CLEAR     63  59  87 CALM      30.08S
WARSAW +       CLEAR     61  59  94 CALM      30.09S

$$

INZ006>009-017-018-025>027-011100-
NORTHEAST INDIANA

CITY           SKY/WX    TMP DP  RH WIND       PRES   REMARKS
ANGOLA *+      MOCLDY    59  59 100 CALM      30.08S VSB 3/4
AUBURN +       CLEAR     63  59  88 CALM      30.10R
FORT WAYNE     PTCLDY    61  58  90 SW5       30.10R
HUNTINGTON +   CLEAR     61  59  94 CALM      30.09S

$$

INZ028-029-035-036-043>045-051>053-011100-
WEST CENTRAL INDIANA

CITY           SKY/WX    TMP DP  RH WIND       PRES   REMARKS
GREENCASTLE +  CLEAR     57  55  94 CALM      30.10S
LAFAYETTE      FOG       57  57 100 CALM      30.09R VSB 3/4
TERRE HAUTE    CLEAR     58  56  93 E3        30.09R

$$

INZ030>032-037>040-046>048-054>057-064-065-011100-
CENTRAL INDIANA

CITY           SKY/WX    TMP DP  RH WIND       PRES   REMARKS
CP ATTERBURY + CLEAR     55  54  94 CALM      30.11R FOG
INDIANAPOLIS   CLEAR     63  60  90 NW3       30.09S
-EAGLE CREEK   CLEAR     61  58  90 CALM      30.09S
KOKOMO *+      CLEAR     55  54  94 S3        30.10R
MT COMFORT *+    N/A     55 N/A N/A CALM      30.10S VSB 3/4
SHELBYVILLE    CLEAR     60  57  89 CALM      30.10R
ZIONSVILLE +     N/A     57  55  91 CALM      30.11S FOG

$$

INZ033-034-041-042-049-050-058-059-011100-
EAST CENTRAL INDIANA

CITY           SKY/WX    TMP DP  RH WIND       PRES   REMARKS
MUNCIE         CLEAR     58  55  90 CALM      30.10R

$$

INZ060-061-067>069-081>083-085>088-011100-
SOUTHWEST INDIANA

CITY           SKY/WX    TMP DP  RH WIND       PRES   REMARKS
EVANSVILLE     PTCLDY    63  60  90 CALM      30.08S
WASHINGTON +   CLEAR     57  57 100 CALM      30.08R FOG

$$

INZ062-063-066-070>080-084-089>092-011100-
SOUTH CENTRAL AND SOUTHEAST INDIANA

CITY           SKY/WX    TMP DP  RH WIND       PRES   REMARKS
BLOOMINGTON    FOG       59  57  93 CALM      30.10R VSB 1/4
SEYMOUR +      HAZE      54  48  82 W3        30.09R VSB 1/2

$$



USA.gov is the U.S. government's official web portal to all federal, state and local government web resources and services.